QPF
0.00 0.00 0.00 0.00 0.00 0.00 0.00 0.00 0.00 0.00 0.00 0.00 0.00 0.00 0.00 0.00 0.00 0.00 0.00 0.00 0.00 0.00 0.00 0.00 0.00 0.00 0.00 0.00 0.00 0.00 0.00 0.00 0.00 0.00 0.00 0.00 0.00 0.01 0.01 0.00 0.00 0.00 0.00 0.00 0.00
0.00 0.00 0.00 0.00 0.00 0.00 0.00 0.00 0.00 0.00 0.00 0.00 0.00 0.00 0.00 0.00 0.00 0.00 0.00 0.00 0.00 0.00 0.00 0.00 0.00 0.00 0.00 0.00 0.00 0.00 0.00 0.00 0.00 0.00 0.00 0.00 0.00 0.00 0.01 0.02 0.00 0.00 0.00 0.00 0.00
0.00 0.00 0.00 0.00 0.00 0.00 0.00 0.00 0.00 0.00 0.00 0.00 0.00 0.00 0.00 0.00 0.00 0.00 0.00 0.00 0.00 0.00 0.00 0.00 0.00 0.00 0.00 0.00 0.00 0.00 0.00 0.00 0.00 0.00 0.00 0.00 0.00 0.00 0.01 0.01 0.00 0.00 0.00 0.00 0.00
0.00 0.00 0.00 0.00 0.00 0.00 0.00 0.00 0.00 0.00 0.00 0.00 0.00 0.00 0.00 0.00 0.00 0.00 0.00 0.00 0.00 0.00 0.00 0.00 0.00 0.00 0.00 0.00 0.00 0.00 0.00 0.00 0.00 0.00 0.00 0.00 0.00 0.02 0.01 0.00 0.00 0.00 0.00 0.00 0.00
0.00 0.00 0.00 0.00 0.00 0.00 0.00 0.00 0.00 0.00 0.00 0.00 0.00 0.00 0.00 0.00 0.00 0.00 0.00 0.00 0.00 0.00 0.00 0.00 0.00 0.00 0.00 0.00 0.00 0.00 0.00 0.00 0.00 0.00 0.00 0.00 0.01 0.05 0.04 0.03 0.00 0.00 0.00 0.00 0.00
0.00 0.00 0.00 0.00 0.00 0.00 0.00 0.00 0.00 0.00 0.00 0.00 0.00 0.00 0.00 0.00 0.00 0.00 0.00 0.00 0.00 0.00 0.00 0.00 0.00 0.00 0.00 0.00 0.00 0.00 0.00 0.00 0.00 0.00 0.00 0.00 0.00 0.01 0.04 0.02 0.00 0.00 0.00 0.00 0.00
0.00 0.00 0.00 0.00 0.00 0.00 0.00 0.00 0.00 0.00 0.00 0.00 0.00 0.00 0.00 0.00 0.00 0.00 0.00 0.00 0.00 0.00 0.00 0.00 0.00 0.00 0.00 0.00 0.00 0.00 0.00 0.00 0.00 0.00 0.00 0.00 0.00 0.00 0.01 0.02 0.00 0.00 0.00 0.00 0.00
0.00 0.00 0.00 0.00 0.00 0.00 0.00 0.00 0.00 0.00 0.00 0.00 0.00 0.00 0.00 0.00 0.00 0.00 0.00 0.00 0.00 0.00 0.00 0.00 0.00 0.00 0.00 0.00 0.00 0.00 0.00 0.00 0.00 0.00 0.00 0.00 0.00 0.00 0.00 0.00 0.01 0.01 0.00 0.00 0.00
0.00 0.00 0.00 0.00 0.00 0.00 0.00 0.00 0.00 0.00 0.00 0.00 0.00 0.00 0.00 0.00 0.00 0.00 0.00 0.00 0.00 0.00 0.00 0.00 0.00 0.00 0.00 0.00 0.00 0.00 0.00 0.00 0.00 0.00 0.00 0.00 0.00 0.00 0.00 0.00 0.00 0.01 0.01 0.00 0.00
0.00 0.00 0.00 0.00 0.00 0.00 0.00 0.00 0.00 0.00 0.00 0.00 0.00 0.00 0.00 0.00 0.00 0.00 0.00 0.00 0.00 0.00 0.00 0.00 0.00 0.00 0.00 0.00 0.00 0.00 0.00 0.00 0.00 0.00 0.00 0.00 0.00 0.00 0.00 0.00 0.00 0.00 0.00 0.00 0.00
0.00 0.00 0.00 0.00 0.00 0.00 0.00 0.00 0.00 0.00 0.00 0.00 0.00 0.00 0.00 0.00 0.00 0.00 0.00 0.00 0.00 0.00 0.00 0.00 0.00 0.00 0.00 0.00 0.00 0.00 0.00 0.00 0.00 0.00 0.00 0.00 0.00 0.00 0.00 0.00 0.00 0.00 0.00 0.00 0.00
0.00 0.00 0.00 0.00 0.00 0.00 0.00 0.00 0.00 0.00 0.00 0.00 0.00 0.00 0.00 0.00 0.00 0.00 0.00 0.00 0.00 0.00 0.00 0.00 0.00 0.00 0.00 0.00 0.00 0.00 0.00 0.00 0.00 0.00 0.00 0.00 0.00 0.00 0.00 0.00 0.00 0.00 0.00 0.00 0.00
0.00 0.00 0.00 0.00 0.00 0.00 0.00 0.00 0.00 0.00 0.00 0.00 0.00 0.00 0.00 0.00 0.00 0.00 0.00 0.00 0.00 0.00 0.00 0.00 0.00 0.00 0.00 0.00 0.00 0.00 0.00 0.00 0.00 0.00 0.00 0.00 0.00 0.00 0.00 0.01 0.02 0.01 0.00 0.00 0.00
0.00 0.00 0.00 0.00 0.00 0.00 0.00 0.00 0.00 0.00 0.00 0.00 0.00 0.00 0.00 0.00 0.00 0.00 0.00 0.00 0.00 0.00 0.00 0.00 0.00 0.00 0.00 0.00 0.00 0.00 0.00 0.00 0.00 0.00 0.00 0.00 0.00 0.02 0.03 0.02 0.01 0.06 0.04 0.01 0.00
0.00 0.00 0.00 0.00 0.00 0.00 0.00 0.00 0.00 0.00 0.00 0.00 0.00 0.00 0.00 0.00 0.00 0.00 0.00 0.00 0.00 0.00 0.00 0.00 0.00 0.00 0.00 0.00 0.00 0.00 0.00 0.00 0.00 0.00 0.00 0.00 0.00 0.00 0.01 0.01 0.00 0.03 0.05 0.03 0.00
0.00 0.00 0.00 0.00 0.00 0.00 0.00 0.00 0.00 0.00 0.00 0.00 0.00 0.00 0.00 0.00 0.00 0.00 0.00 0.00 0.00 0.00 0.00 0.00 0.00 0.00 0.00 0.00 0.00 0.00 0.00 0.00 0.00 0.00 0.00 0.00 0.00 0.00 0.00 0.00 0.00 0.00 0.02 0.04 0.00
0.00 0.00 0.00 0.00 0.00 0.00 0.00 0.00 0.00 0.00 0.00 0.00 0.00 0.00 0.00 0.00 0.00 0.00 0.00 0.00 0.00 0.00 0.00 0.00 0.00 0.00 0.00 0.00 0.00 0.00 0.00 0.00 0.00 0.00 0.00 0.00 0.00 0.00 0.00 0.00 0.00 0.00 0.00 0.00 0.00
0.00 0.00 0.00 0.00 0.00 0.00 0.00 0.00 0.00 0.00 0.00 0.00 0.00 0.00 0.00 0.00 0.00 0.00 0.00 0.00 0.00 0.00 0.00 0.00 0.00 0.00 0.00 0.00 0.00 0.00 0.00 0.00 0.00 0.00 0.00 0.00 0.00 0.00 0.00 0.00 0.00 0.00 0.00 0.00 0.00
0.00 0.00 0.00 0.00 0.00 0.00 0.00 0.00 0.00 0.00 0.00 0.00 0.00 0.00 0.00 0.00 0.00 0.00 0.00 0.00 0.00 0.00 0.00 0.00 0.00 0.00 0.00 0.00 0.00 0.00 0.00 0.00 0.00 0.00 0.00 0.00 0.00 0.00 0.00 0.00 0.00 0.00 0.00 0.00 0.00
0.00 0.00 0.00 0.00 0.00 0.00 0.00 0.00 0.00 0.00 0.00 0.00 0.00 0.00 0.00 0.00 0.00 0.00 0.00 0.00 0.00 0.00 0.00 0.00 0.00 0.00 0.00 0.00 0.00 0.00 0.00 0.00 0.00 0.00 0.00 0.00 0.00 0.00 0.00 0.00 0.00 0.00 0.00 0.00 0.00
0.00 0.00 0.00 0.00 0.00 0.00 0.00 0.00 0.00 0.00 0.00 0.00 0.00 0.00 0.00 0.00 0.00 0.00 0.00 0.00 0.00 0.00 0.00 0.00 0.00 0.00 0.00 0.00 0.00 0.00 0.00 0.00 0.00 0.00 0.00 0.00 0.00 0.00 0.00 0.00 0.00 0.00 0.00 0.00 0.00
0.00 0.00 0.00 0.00 0.00 0.00 0.00 0.00 0.00 0.00 0.00 0.00 0.00 0.00 0.00 0.00 0.00 0.00 0.00 0.00 0.00 0.00 0.00 0.00 0.00 0.00 0.00 0.00 0.00 0.00 0.00 0.00 0.00 0.00 0.00 0.00 0.00 0.00 0.00 0.00 0.00 0.00 0.00 0.00 0.00
0.00 0.00 0.00 0.00 0.00 0.00 0.00 0.00 0.00 0.00 0.00 0.00 0.00 0.00 0.00 0.00 0.00 0.00 0.00 0.00 0.00 0.00 0.00 0.00 0.00 0.00 0.00 0.00 0.00 0.00 0.00 0.00 0.00 0.00 0.00 0.00 0.00 0.00 0.00 0.00 0.00 0.00 0.00 0.00 0.00
0.00 0.00 0.00 0.00 0.00 0.00 0.00 0.00 0.00 0.00 0.00 0.00 0.00 0.00 0.00 0.00 0.00 0.00 0.00 0.00 0.00 0.00 0.00 0.00 0.00 0.00 0.00 0.00 0.00 0.00 0.00 0.00 0.00 0.00 0.00 0.00 0.00 0.00 0.00 0.00 0.00 0.00 0.00 0.00 0.00
0.01 0.00 0.00 0.00 0.00 0.00 0.00 0.00 0.00 0.00 0.00 0.00 0.00 0.00 0.00 0.00 0.00 0.00 0.00 0.00 0.00 0.00 0.00 0.00 0.00 0.00 0.00 0.00 0.00 0.00 0.00 0.00 0.00 0.00 0.00 0.00 0.00 0.00 0.00 0.00 0.00 0.00 0.00 0.00 0.01
0.01 0.01 0.00 0.00 0.00 0.00 0.00 0.00 0.00 0.00 0.00 0.00 0.00 0.00 0.00 0.00 0.00 0.00 0.00 0.00 0.00 0.00 0.00 0.00 0.00 0.00 0.00 0.00 0.00 0.00 0.00 0.00 0.00 0.00 0.00 0.00 0.00 0.00 0.00 0.00 0.00 0.00 0.00 0.00 0.02
0.02 0.02 0.01 0.00 0.00 0.00 0.00 0.00 0.00 0.00 0.00 0.00 0.00 0.00 0.00 0.00 0.00 0.00 0.00 0.00 0.00 0.00 0.00 0.00 0.00 0.00 0.00 0.00 0.00 0.00 0.00 0.00 0.00 0.00 0.00 0.00 0.00 0.00 0.00 0.00 0.00 0.00 0.00 0.00 0.00
MSLP
1022.71 1022.08 1021.53 1020.95 1020.40 1019.84 1019.26 1018.63 1018.18 1017.73 1017.16 1016.61 1016.08 1015.47 1014.89 1014.27 1013.54 1012.28 1011.40 1009.29 1009.08 1008.67 1008.85 1008.60 1008.24 1007.82 1007.68 1007.64 1007.41 1007.33 1008.23 1007.59 1006.43 1005.59 1005.11 1005.33 1006.02 1007.43 1009.19 1011.87 1007.91 1006.72 1006.94 1008.53 1009.73
1022.88 1022.28 1021.61 1020.98 1020.38 1019.74 1019.16 1018.59 1018.01 1017.38 1016.84 1016.35 1015.85 1015.33 1014.78 1014.29 1013.49 1011.32 1008.81 1008.49 1008.51 1008.59 1008.68 1008.67 1008.39 1007.85 1007.82 1007.09 1007.05 1007.19 1007.31 1006.31 1005.21 1004.85 1004.64 1005.35 1006.46 1008.06 1009.05 1010.89 1009.15 1008.05 1008.73 1009.08 1009.91
1022.92 1022.29 1021.63 1020.96 1020.30 1019.64 1018.97 1018.31 1017.70 1017.05 1016.41 1015.92 1015.53 1014.98 1014.61 1014.33 1013.11 1009.08 1008.03 1008.17 1008.23 1008.43 1008.59 1008.55 1008.45 1008.22 1007.51 1006.97 1006.59 1006.28 1006.32 1005.38 1004.20 1004.22 1004.29 1005.70 1007.24 1007.52 1007.37 1011.03 1010.28 1008.10 1008.68 1009.49 1010.15
1022.91 1022.23 1021.52 1020.85 1020.15 1019.45 1018.74 1018.04 1017.41 1016.81 1016.32 1015.81 1015.27 1014.79 1014.36 1014.19 1011.74 1008.15 1008.03 1008.02 1007.93 1008.24 1008.49 1008.31 1008.28 1008.26 1007.47 1007.03 1006.14 1005.99 1005.24 1004.72 1003.79 1003.44 1003.66 1004.78 1007.28 1008.37 1009.10 1006.76 1008.17 1008.35 1008.89 1009.62 1010.28
1022.80 1022.11 1021.41 1020.62 1019.80 1019.03 1018.34 1017.69 1017.06 1016.46 1016.01 1015.56 1015.11 1014.78 1014.16 1013.27 1009.88 1007.80 1007.83 1007.93 1007.99 1008.00 1008.06 1008.04 1008.03 1007.89 1007.51 1006.66 1006.16 1005.70 1004.99 1004.16 1003.22 1003.06 1003.02 1003.40 1005.57 1006.60 1008.53 1007.94 1008.60 1008.35 1009.65 1010.01 1010.51
1022.78 1022.01 1021.18 1020.27 1019.38 1018.51 1017.72 1017.05 1016.47 1015.92 1015.44 1015.07 1014.85 1014.73 1014.33 1012.02 1007.23 1006.84 1007.26 1007.67 1007.48 1007.59 1007.46 1007.35 1007.37 1007.15 1007.05 1006.68 1006.40 1005.43 1004.90 1004.08 1003.15 1002.94 1002.82 1003.51 1004.88 1005.74 1008.09 1007.78 1008.12 1008.05 1009.20 1009.82 1010.18
1022.64 1021.83 1020.92 1019.86 1018.85 1017.92 1017.07 1016.33 1015.77 1015.30 1014.82 1014.54 1014.48 1014.35 1013.16 1009.53 1006.80 1006.70 1007.09 1007.04 1006.93 1006.97 1007.03 1006.57 1006.78 1006.98 1006.71 1006.57 1005.84 1005.58 1005.34 1004.28 1003.34 1003.04 1002.85 1003.63 1004.90 1006.06 1007.02 1006.87 1007.34 1008.01 1008.61 1009.17 1009.63
1022.45 1021.51 1020.49 1019.40 1018.26 1017.22 1016.39 1015.58 1015.06 1014.61 1014.21 1014.01 1014.07 1013.85 1011.53 1007.39 1006.95 1006.99 1006.54 1006.64 1006.54 1006.41 1006.53 1006.31 1006.37 1006.69 1006.93 1006.85 1006.32 1006.47 1005.65 1004.95 1003.72 1003.15 1002.79 1003.64 1005.29 1006.02 1006.10 1006.76 1007.47 1007.71 1008.38 1008.97 1009.48
1022.27 1021.20 1020.16 1019.03 1017.77 1016.61 1015.61 1014.63 1013.95 1013.76 1013.65 1013.68 1013.86 1013.20 1009.85 1006.75 1006.54 1006.08 1006.32 1006.53 1006.33 1006.29 1006.37 1006.38 1006.55 1007.12 1007.46 1007.78 1007.90 1006.93 1006.41 1005.45 1004.33 1003.41 1003.47 1003.98 1005.23 1005.92 1006.07 1006.41 1007.25 1007.72 1008.42 1009.19 1009.82
1022.14 1021.12 1020.02 1018.80 1017.38 1016.22 1014.98 1013.24 1012.75 1013.18 1013.16 1013.15 1012.80 1012.52 1008.77 1006.46 1005.68 1005.68 1005.66 1006.11 1006.30 1006.30 1006.59 1006.75 1007.13 1007.60 1008.09 1008.46 1007.83 1007.57 1006.80 1005.79 1004.96 1003.74 1004.02 1004.27 1004.86 1005.59 1006.23 1006.76 1007.19 1007.90 1008.54 1009.22 1010.03
1022.21 1021.20 1019.99 1018.64 1017.23 1015.97 1015.07 1013.39 1013.35 1013.60 1012.78 1011.28 1010.41 1008.93 1007.04 1005.85 1005.35 1005.82 1005.84 1005.93 1006.17 1006.52 1007.01 1007.14 1007.80 1008.07 1008.04 1007.78 1007.60 1007.36 1006.76 1006.05 1004.76 1003.97 1004.10 1004.39 1004.84 1005.49 1006.05 1006.77 1007.28 1007.87 1008.59 1009.14 1009.98
1022.31 1021.12 1019.91 1018.62 1017.22 1016.09 1015.36 1015.03 1015.46 1015.64 1013.30 1010.43 1009.20 1008.53 1007.21 1006.66 1006.24 1005.62 1005.54 1006.28 1006.53 1006.98 1007.17 1007.59 1007.41 1007.30 1006.98 1006.75 1006.85 1006.74 1006.45 1005.78 1005.15 1004.25 1004.02 1004.09 1004.60 1005.23 1006.00 1006.48 1006.94 1007.51 1007.97 1008.83 1010.05
1022.32 1021.15 1019.85 1018.50 1017.01 1015.80 1015.90 1015.88 1015.34 1015.16 1013.91 1009.12 1007.42 1006.82 1006.36 1006.07 1005.71 1005.58 1005.73 1005.97 1006.46 1007.04 1007.23 1007.33 1006.57 1006.14 1006.24 1006.09 1006.10 1005.91 1005.97 1005.68 1005.16 1004.44 1004.14 1004.39 1004.20 1004.84 1005.43 1006.24 1006.77 1007.45 1008.06 1008.62 1009.30
1022.32 1021.21 1019.98 1018.52 1016.87 1016.40 1015.94 1015.86 1015.54 1015.26 1013.63 1008.24 1006.06 1004.90 1004.91 1005.20 1005.32 1004.63 1004.84 1005.95 1006.07 1006.56 1006.94 1006.61 1005.95 1005.61 1005.44 1005.46 1005.51 1005.45 1005.20 1005.37 1005.28 1005.35 1005.16 1004.54 1004.84 1005.45 1005.65 1006.03 1006.56 1006.62 1008.01 1008.75 1009.57
1022.26 1021.12 1020.14 1018.98 1018.64 1017.47 1017.14 1016.17 1015.57 1015.12 1012.12 1007.20 1005.78 1004.98 1004.70 1005.61 1005.25 1003.82 1004.17 1005.34 1005.72 1006.17 1006.59 1006.04 1005.63 1005.32 1004.99 1004.89 1004.70 1004.77 1005.09 1005.46 1005.73 1006.03 1006.17 1005.54 1005.44 1004.69 1006.08 1006.84 1006.07 1006.64 1007.45 1008.32 1009.09
1022.04 1020.75 1019.95 1018.71 1018.22 1017.41 1016.64 1016.09 1015.83 1014.89 1010.58 1006.91 1006.02 1005.53 1005.70 1005.53 1005.32 1004.71 1004.59 1005.00 1005.38 1006.14 1006.21 1006.08 1005.40 1004.98 1004.68 1004.47 1004.29 1004.70 1005.23 1005.67 1006.27 1006.72 1006.74 1006.05 1005.89 1004.41 1004.52 1004.20 1005.41 1005.84 1006.69 1007.63 1008.68
1021.68 1020.27 1019.31 1018.78 1018.36 1017.20 1016.55 1016.27 1015.80 1013.79 1009.60 1009.30 1008.33 1007.71 1007.09 1006.31 1005.76 1005.36 1005.32 1005.75 1006.40 1006.86 1006.92 1006.37 1005.40 1004.66 1004.46 1004.58 1004.41 1004.94 1006.01 1007.13 1007.62 1007.59 1006.65 1005.38 1005.30 1003.79 1002.93 1002.83 1003.60 1004.58 1005.50 1006.43 1007.45
1021.34 1019.63 1018.41 1018.22 1017.77 1017.18 1016.92 1016.52 1015.81 1013.18 1012.30 1011.38 1010.55 1009.02 1008.44 1007.55 1006.60 1006.02 1006.10 1006.57 1006.86 1007.28 1007.26 1007.03 1005.73 1004.93 1003.92 1004.12 1004.53 1004.97 1006.09 1007.30 1007.87 1007.94 1006.66 1005.75 1004.49 1002.64 1002.15 1001.59 1001.49 1002.17 1003.12 1005.39 1006.98
1020.81 1019.40 1018.64 1018.05 1017.38 1017.23 1017.38 1016.66 1015.82 1014.70 1014.02 1012.99 1011.20 1009.79 1009.02 1008.61 1008.74 1007.61 1007.98 1009.07 1009.76 1009.77 1009.57 1008.19 1006.13 1004.93 1004.28 1004.02 1004.28 1004.56 1005.26 1006.27 1007.20 1007.36 1007.36 1005.82 1004.22 1002.11 1001.74 1001.28 1001.26 1001.16 1002.67 1004.09 1005.72
1021.43 1019.98 1018.89 1017.53 1017.03 1017.22 1017.39 1016.84 1016.27 1015.48 1014.82 1013.91 1013.12 1012.25 1011.91 1011.40 1010.79 1010.39 1009.92 1011.76 1011.52 1011.39 1010.63 1009.90 1008.09 1006.08 1004.72 1004.38 1003.75 1003.98 1004.57 1005.92 1006.74 1007.50 1007.31 1005.71 1004.71 1003.12 1001.73 1001.23 1000.86 1001.36 1001.78 1002.75 1004.09
1021.54 1020.16 1018.96 1017.27 1016.66 1017.58 1018.08 1017.53 1016.77 1015.96 1015.65 1015.15 1014.92 1014.65 1014.25 1014.00 1013.49 1012.74 1012.38 1013.03 1012.98 1012.88 1012.16 1011.84 1010.68 1008.30 1006.62 1005.62 1005.36 1005.23 1005.07 1005.52 1006.34 1006.87 1006.85 1005.84 1004.23 1002.68 1001.86 1001.45 1001.18 1000.86 1001.36 1000.97 1002.35
1023.15 1021.25 1019.14 1017.97 1018.86 1019.56 1019.45 1018.46 1017.55 1017.00 1016.79 1016.41 1016.40 1016.14 1016.19 1015.99 1015.22 1014.80 1014.16 1014.35 1014.63 1014.17 1014.51 1013.94 1012.48 1010.52 1008.36 1006.81 1006.58 1006.59 1006.90 1006.86 1006.88 1007.01 1006.57 1006.03 1003.66 1002.59 1001.38 1000.79 1000.73 1000.54 1000.15 1000.08 1001.94
1024.52 1022.27 1020.15 1019.48 1020.85 1021.21 1020.14 1018.92 1018.05 1017.94 1018.05 1018.06 1017.95 1018.03 1017.88 1017.61 1017.28 1016.24 1015.95 1015.95 1016.30 1016.09 1015.92 1015.46 1014.08 1012.47 1009.87 1008.49 1007.45 1007.81 1007.90 1008.35 1008.13 1007.49 1006.62 1006.12 1002.60 1002.58 1001.66 1000.92 1000.53 1000.29 999.71 999.88 1001.33
1025.46 1023.91 1022.58 1022.09 1022.40 1022.25 1021.41 1020.21 1019.28 1018.92 1019.00 1019.25 1019.15 1018.90 1018.72 1018.90 1018.81 1018.38 1017.89 1017.32 1017.63 1017.63 1016.92 1016.51 1015.99 1015.20 1013.97 1012.74 1012.26 1010.95 1010.02 1009.68 1009.79 1009.10 1007.69 1006.53 1003.92 1003.16 1002.06 1001.16 1000.62 1000.24 1000.24 1000.04 1001.35
1026.36 1025.84 1025.37 1024.70 1024.15 1023.51 1022.23 1021.43 1020.51 1019.80 1020.02 1020.16 1020.08 1020.16 1020.28 1020.39 1020.17 1019.66 1019.58 1019.18 1019.09 1018.78 1018.57 1018.70 1017.42 1016.67 1015.51 1014.69 1013.94 1012.61 1011.74 1010.88 1010.25 1009.46 1008.91 1007.00 1005.23 1004.35 1003.28 1002.11 1000.53 1000.05 999.63 1000.11 1001.81
1027.21 1027.01 1026.49 1025.97 1024.88 1023.93 1022.62 1021.87 1021.16 1020.67 1020.86 1020.91 1021.05 1020.99 1021.03 1021.27 1021.24 1021.05 1021.01 1021.08 1020.92 1019.86 1020.50 1020.14 1019.20 1018.19 1016.49 1016.02 1015.29 1013.94 1012.38 1010.91 1010.35 1009.47 1008.40 1007.23 1005.46 1004.56 1003.91 1002.98 1001.95 1000.51 999.72 1000.05 1002.05
1027.71 1027.52 1027.23 1026.44 1025.54 1024.81 1023.47 1022.71 1021.93 1021.44 1021.37 1021.28 1021.43 1021.48 1021.51 1021.45 1021.40 1021.43 1021.39 1021.51 1021.41 1021.04 1020.99 1021.07 1020.35 1019.56 1017.66 1017.00 1015.91 1014.13 1011.99 1011.37 1010.33 1009.66 1009.04 1007.90 1006.58 1006.32 1005.46 1004.67 1003.77 1002.69 1001.22 999.80 1001.15
Thickness
5613 5617 5621 5624 5628 5631 5635 5639 5641 5644 5647 5650 5653 5657 5661 5667 5674 5688 5692 5715 5719 5727 5727 5729 5734 5739 5743 5742 5750 5753 5710 5720 5742 5757 5771 5780 5756 5754 5741 5713 5779 5793 5789 5780 5777
5607 5611 5615 5619 5623 5628 5631 5635 5638 5642 5645 5648 5651 5654 5658 5662 5669 5684 5709 5714 5718 5721 5720 5716 5716 5726 5720 5734 5738 5726 5706 5731 5767 5774 5776 5777 5760 5738 5739 5720 5756 5776 5774 5777 5773
5601 5605 5610 5614 5618 5623 5628 5632 5636 5640 5645 5647 5649 5653 5655 5657 5666 5696 5708 5710 5712 5714 5715 5716 5715 5714 5716 5729 5733 5733 5719 5750 5770 5779 5781 5757 5746 5753 5742 5711 5743 5769 5767 5767 5766
5594 5599 5604 5608 5613 5618 5623 5629 5633 5637 5640 5643 5647 5650 5653 5654 5665 5700 5702 5704 5707 5708 5706 5707 5706 5699 5707 5707 5731 5719 5742 5754 5769 5777 5781 5765 5733 5729 5729 5772 5765 5771 5767 5763 5760
5586 5591 5596 5602 5608 5614 5619 5624 5629 5634 5637 5640 5643 5645 5650 5655 5672 5700 5700 5698 5699 5701 5697 5696 5694 5695 5691 5711 5719 5717 5736 5754 5770 5772 5781 5781 5741 5730 5700 5733 5764 5767 5758 5755 5755
5578 5584 5590 5596 5603 5610 5616 5622 5626 5631 5635 5638 5639 5640 5642 5649 5700 5703 5699 5695 5696 5693 5693 5696 5694 5700 5696 5701 5703 5722 5728 5741 5758 5763 5775 5767 5754 5746 5728 5749 5759 5764 5755 5753 5754
5573 5579 5586 5593 5600 5608 5614 5620 5624 5628 5632 5634 5635 5638 5646 5664 5699 5700 5696 5694 5696 5694 5688 5698 5699 5691 5697 5693 5714 5716 5705 5726 5743 5751 5757 5761 5736 5729 5734 5750 5752 5756 5755 5753 5754
5568 5575 5583 5590 5599 5606 5612 5619 5622 5626 5629 5631 5631 5635 5646 5688 5693 5692 5696 5691 5694 5696 5693 5696 5698 5691 5690 5696 5700 5691 5701 5691 5731 5746 5750 5750 5713 5727 5741 5740 5739 5747 5751 5749 5749
5563 5571 5579 5586 5596 5604 5612 5620 5625 5626 5627 5627 5626 5631 5649 5688 5682 5692 5691 5682 5687 5689 5689 5692 5687 5675 5675 5663 5656 5676 5667 5686 5707 5735 5737 5734 5718 5725 5738 5740 5734 5736 5740 5738 5737
5557 5564 5572 5581 5592 5601 5611 5624 5628 5624 5625 5624 5628 5625 5656 5670 5685 5687 5690 5684 5677 5678 5671 5670 5663 5650 5648 5640 5637 5654 5663 5678 5685 5721 5722 5711 5720 5724 5727 5732 5730 5727 5728 5729 5729
5548 5556 5565 5575 5585 5596 5603 5615 5616 5617 5621 5632 5641 5648 5666 5678 5685 5675 5680 5675 5673 5666 5647 5655 5635 5627 5638 5649 5659 5664 5664 5665 5690 5714 5715 5710 5703 5714 5721 5721 5721 5721 5720 5723 5724
5539 5548 5556 5566 5577 5587 5593 5596 5589 5589 5601 5631 5640 5644 5657 5663 5655 5666 5675 5656 5652 5638 5648 5639 5630 5648 5658 5663 5658 5658 5658 5663 5681 5702 5710 5713 5707 5704 5710 5712 5717 5718 5720 5720 5714
5529 5538 5548 5559 5570 5580 5580 5578 5582 5584 5586 5630 5645 5647 5650 5656 5653 5654 5660 5655 5645 5635 5636 5627 5646 5662 5657 5655 5653 5653 5652 5658 5666 5692 5698 5700 5697 5692 5703 5708 5709 5710 5712 5715 5713
5520 5529 5538 5550 5563 5566 5570 5570 5572 5575 5571 5632 5642 5652 5654 5654 5643 5665 5664 5649 5642 5633 5634 5634 5652 5654 5652 5650 5650 5638 5666 5667 5666 5664 5650 5692 5649 5672 5683 5686 5699 5707 5699 5701 5700
5510 5519 5527 5536 5537 5548 5550 5557 5563 5567 5561 5632 5635 5651 5649 5633 5639 5656 5663 5644 5633 5633 5633 5631 5641 5641 5641 5646 5658 5649 5662 5656 5656 5644 5643 5658 5648 5678 5671 5660 5689 5687 5690 5692 5695
5502 5512 5518 5528 5531 5537 5543 5548 5550 5558 5558 5618 5623 5621 5621 5628 5630 5639 5645 5644 5643 5627 5628 5628 5646 5645 5645 5654 5657 5659 5650 5647 5641 5632 5611 5642 5638 5657 5663 5684 5688 5692 5689 5682 5687
5494 5504 5511 5514 5514 5526 5532 5534 5546 5526 5601 5579 5584 5593 5601 5608 5615 5621 5619 5614 5601 5597 5597 5617 5630 5643 5647 5633 5649 5643 5623 5594 5591 5593 5604 5663 5638 5661 5688 5699 5693 5693 5692 5690 5688
5483 5496 5504 5504 5508 5513 5515 5526 5515 5560 5551 5560 5561 5577 5578 5590 5599 5607 5605 5594 5602 5599 5597 5592 5596 5624 5645 5632 5624 5627 5615 5580 5577 5583 5614 5645 5627 5659 5698 5711 5714 5710 5710 5690 5684
5472 5483 5488 5492 5497 5499 5499 5497 5501 5527 5529 5533 5553 5565 5569 5574 5567 5580 5579 5562 5560 5566 5563 5574 5597 5626 5633 5636 5631 5622 5608 5623 5600 5607 5591 5614 5634 5673 5691 5699 5700 5705 5698 5690 5685
5452 5462 5472 5482 5486 5484 5488 5489 5493 5508 5512 5519 5521 5530 5527 5534 5542 5546 5554 5533 5537 5546 5553 5562 5567 5608 5621 5623 5632 5622 5632 5598 5592 5575 5570 5605 5610 5625 5662 5678 5696 5691 5691 5690 5687
5437 5447 5456 5470 5476 5466 5465 5470 5483 5490 5492 5494 5494 5498 5504 5503 5512 5522 5524 5517 5521 5524 5533 5533 5542 5570 5596 5602 5597 5599 5605 5609 5599 5589 5575 5579 5602 5645 5657 5667 5677 5689 5693 5700 5687
5409 5417 5441 5452 5430 5426 5433 5453 5463 5465 5469 5472 5471 5477 5473 5478 5489 5499 5506 5502 5501 5508 5497 5509 5519 5532 5566 5592 5598 5592 5585 5593 5580 5578 5589 5584 5597 5647 5657 5667 5674 5679 5689 5696 5678
5382 5399 5421 5426 5385 5384 5424 5440 5450 5445 5439 5440 5440 5443 5450 5453 5453 5476 5480 5474 5471 5481 5478 5486 5491 5498 5540 5567 5584 5570 5573 5568 5568 5575 5581 5566 5601 5642 5652 5660 5667 5669 5681 5684 5673
5368 5370 5385 5392 5392 5394 5400 5413 5417 5424 5421 5420 5418 5426 5429 5424 5432 5433 5441 5452 5451 5455 5476 5477 5481 5484 5482 5505 5516 5527 5540 5549 5545 5539 5552 5560 5595 5616 5632 5644 5655 5662 5664 5664 5661
5349 5348 5360 5344 5353 5368 5385 5392 5393 5400 5400 5400 5396 5397 5393 5391 5398 5408 5412 5416 5424 5437 5436 5432 5450 5466 5480 5487 5493 5504 5513 5525 5533 5546 5538 5564 5576 5592 5609 5624 5648 5658 5664 5654 5641
5326 5322 5334 5338 5353 5357 5371 5375 5381 5385 5380 5377 5374 5379 5378 5369 5375 5372 5381 5384 5388 5409 5398 5401 5405 5420 5447 5463 5464 5472 5499 5517 5525 5534 5545 5559 5572 5594 5596 5610 5622 5642 5649 5643 5633
5316 5318 5319 5326 5332 5334 5345 5357 5364 5365 5367 5368 5363 5358 5356 5362 5364 5366 5370 5369 5371 5377 5378 5374 5381 5389 5412 5436 5438 5433 5481 5496 5512 5525 5534 5536 5560 5563 5564 5578 5595 5611 5626 5634 5632